Squamish, British Columbia

11:13 AM PDT on September 22, 2017 (GMT -0700)
Squamish

Weather History for CWSK - October, 2013

Change the Weather History Date:

Sunday, October 13, 2013

  Actual Average Record
Temperature  
Mean Temperature 48 °F -  
Max Temperature 60 °F - - ()
Min Temperature 35 °F - - ()
Degree Days  
Heating Degree Days 18    
Moisture  
Dew Point 38 °F    
Average Humidity 81    
Maximum Humidity 97    
Minimum Humidity 32    
Precipitation  
Precipitation 0.00 in - - ()
Sea Level Pressure  
Sea Level Pressure 30.31 in    
Wind  
Wind Speed 2 mph ()    
Max Wind Speed 6 mph    
Max Gust Speed -    
T = Trace of Precipitation, MM = Missing Value Source: Averaged Metar Reports

Daily Weather History Graph

Daily Weather History Graph

Search for Another Location

Airport or City:

Trip Planner

Search our weather history database for the weather conditions in past years. The results will help you decide how hot, cold, wet, or windy it might be!

Date:

Astronomy

Oct. 13, 2013 Rise Set
Actual Time 7:31 AM PDT 6:25 PM PDT
Civil Twilight 6:59 AM PDT 6:57 PM PDT
Nautical Twilight 6:22 AM PDT 7:34 PM PDT
Astronomical Twilight 5:44 AM PDT 8:11 PM PDT
Moon 3:46 PM PDT (10/13) 1:17 AM PDT (10/13)
Length of Visible Light 11h 58m
Length of Day
10h 53m
Waxing Gibbous, 70% of the Moon is Illuminated
Oct 13
Waxing Gibbous
Oct 18
Full
Oct 26
Last Quarter
Nov 3
New
Nov 9
First Quarter

Hourly Weather History & Observations

Time (PDT) Temp. Windchill Dew Point Humidity Pressure Visibility Wind Dir Wind Speed Gust Speed Precip Events Conditions
12:00 AM 39.6 °F - 38.7 °F 97% 30.24 in - NNE 2.3 mph - N/A   Unknown
1:00 AM 38.8 °F - 37.9 °F 97% 30.26 in - NNE 2.3 mph - N/A   Unknown
2:00 AM 38 °F - 37 °F 95% 30.27 in - North 2.3 mph - -  
2:00 AM 37.9 °F - 37.0 °F 97% 30.27 in - North 2.3 mph - N/A   Unknown
3:00 AM 37.4 °F - 36.5 °F 97% 30.28 in - NNE 2.3 mph - N/A   Unknown
4:00 AM 37.6 °F - 36.9 °F 97% 30.28 in - NE 2.3 mph - N/A   Unknown
5:00 AM 37 °F - 36 °F 95% 30.30 in - NNE 2.3 mph - -  
5:00 AM 36.9 °F - 36.1 °F 97% 30.30 in - NNE 2.3 mph - N/A   Unknown
6:00 AM 36.7 °F - 36.0 °F 97% 30.30 in - NNE 1.2 mph - N/A   Unknown
7:00 AM 36.3 °F - 35.6 °F 97% 30.31 in - NE 1.2 mph - N/A   Unknown
8:00 AM 36 °F - 35 °F 97% 30.32 in - NE 2.3 mph - -  
8:00 AM 36.1 °F - 35.4 °F 97% 30.32 in - NE 2.3 mph - N/A   Unknown
9:00 AM 38.5 °F - 37.6 °F 97% 30.33 in - North 1.2 mph - N/A   Unknown
10:00 AM 44.2 °F - 40.6 °F 87% 30.33 in - NNW 2.3 mph - N/A   Unknown
11:00 AM 49 °F - 41 °F 66% 30.32 in - NW 2.3 mph - -  
11:00 AM 49.1 °F - 41.0 °F 74% 30.32 in - NW 2.3 mph - N/A   Unknown
12:00 PM 53.8 °F - 39.6 °F 59% 30.32 in - WSW 2.3 mph - N/A   Unknown
1:00 PM 56.8 °F - 36.5 °F 47% 30.30 in - SW 2.3 mph - N/A   Unknown
2:00 PM 60 °F - 38 °F 32% 30.28 in - SW 3.5 mph - -  
2:00 PM 59.5 °F - 37.8 °F 44% 30.28 in - SW 3.5 mph - N/A   Unknown
3:00 PM 58.3 °F - 36.5 °F 44% 30.28 in - SSE 5.8 mph - N/A   Unknown
4:00 PM 57.7 °F - 38.3 °F 48% 30.28 in - SSE 3.5 mph - N/A   Unknown
5:00 PM 54 °F - 41 °F 50% 30.29 in - SE 2.3 mph - -  
5:00 PM 53.8 °F - 40.6 °F 61% 30.29 in - SE 2.3 mph - N/A   Unknown
6:00 PM 48.4 °F - 43.2 °F 82% 30.30 in - East 1.2 mph - N/A   Unknown
7:00 PM 44.8 °F - 41.9 °F 90% 30.32 in - ENE 1.2 mph - N/A   Unknown
8:00 PM 43 °F - 41 °F 89% 30.34 in - NE 1.2 mph - -  
8:00 PM 42.8 °F - 40.8 °F 93% 30.34 in - NE 1.2 mph - N/A   Unknown
9:00 PM 42.3 °F 40.5 °F 40.6 °F 94% 30.35 in - NNE 3.5 mph - N/A   Unknown
10:00 PM 41.0 °F - 39.7 °F 95% 30.37 in - NNE 1.2 mph - N/A   Unknown
11:00 PM 40 °F - 39 °F 94% 30.39 in - ENE 1.2 mph - -  
11:00 PM 39.9 °F - 38.8 °F 96% 30.39 in - ENE 1.2 mph - N/A   Unknown